This is the latest recevied weather packets stored in our database for station/object VA7NEZ. If no packets are shown the sender has not sent any weather packets the latest 10 day(s).
| Time | Temp. | Humidity | Pressure | Rain* | Wind** | Luminosity | Snow |
|---|---|---|---|---|---|---|---|
| 1778345786 | 15° C | 43% | 1020.4 hPa | 0 mm | - | - | - |
| 1778344711 | 14.44° C | 43% | 1020.7 hPa | 0 mm | - | - | - |
| 1778344136 | 13.89° C | 45% | 1020.8 hPa | 0 mm | - | - | - |
| 1778343631 | 13.89° C | 47% | 1020.9 hPa | 0 mm | - | - | - |
| 1778343146 | 13.89° C | 45% | 1020.9 hPa | 0 mm | - | - | - |
| 1778342551 | 13.89° C | 45% | 1020.9 hPa | 0 mm | - | - | - |
| 1778341421 | 13.33° C | 48% | 1021.1 hPa | 0 mm | - | - | - |
| 1778340316 | 12.78° C | 51% | 1021.1 hPa | 0 mm | - | - | - |
| 1778339741 | 12.22° C | 52% | 1021.1 hPa | 0 mm | - | - | - |
| 1778338626 | 11.11° C | 54% | 1021.3 hPa | 0 mm | - | - | - |
| 1778338130 | 11.11° C | 55% | 1021.1 hPa | 0 mm | - | - | - |
| 1778337641 | 10.56° C | 57% | 1021.2 hPa | 0 mm | - | - | - |
| 1778337116 | 10° C | 60% | 1021.3 hPa | 0 mm | - | - | - |
| 1778336561 | 9.44° C | 61% | 1021.1 hPa | 0 mm | - | - | - |
| 1778335971 | 8.89° C | 62% | 1021.1 hPa | 0 mm | - | - | - |
| 1778335456 | 8.89° C | 63% | 1021.2 hPa | 0 mm | - | - | - |
| 1778334941 | 8.33° C | 63% | 1021.1 hPa | 0 mm | - | - | - |
| 1778334351 | 7.78° C | 64% | 1021 hPa | 0 mm | - | - | - |
| 1778333811 | 7.22° C | 63% | 1020.9 hPa | 0 mm | - | - | - |
| 1778333271 | 7.22° C | 64% | 1020.9 hPa | 0 mm | - | - | - |
| 1778332726 | 7.22° C | 63% | 1020.9 hPa | 0 mm | - | - | - |
| 1778332211 | 7.22° C | 64% | 1020.8 hPa | 0 mm | - | - | - |
| 1778331638 | 7.22° C | 64% | 1020.7 hPa | 0 mm | - | - | - |
| 1778331095 | 7.22° C | 66% | 1020.8 hPa | 0 mm | - | - | - |
| 1778330501 | 6.67° C | 63% | 1020.7 hPa | 0 mm | - | - | - |
* Rain latest hour (hover to see other rain measurements)
** Current wind speed in m/s (hover to see current wind gust speed)